STARLINK-3867 (52587 NORAD) Tracking and Keplerian Element Data

This shows tracking and keplerian element data for the satellite.

Feedback or suggestion? Click here.




ElementValue
Catalog52587
NameSTARLINK-3867
Epoch Orbit981
Epoch Day192.91667824
Epoch Year2022
RAAN2.4712
Inclination53.2174
Eccentricity0.0001411
Argument of Perigee43.7692
Mean Anonmoly4.2113
Mean Motion15.4928174
Decay Rate-0.0105524
L11 52587U 22051BD 22192.91667824 -.01055240 00000+0 -20912-1 0 9999
L22 52587 53.2174 2.4712 0001411 43.7692 4.2113 15.49281740 9815

Live tracking and technical data element details for STARLINK-3867 (NORAD 52587). STARLINK-3867 can be tracked NOW for your location showing map with azimuth and elevation plus other details from your city location.

Track the satellite on the map from your city or location and see movement details for azimuth, elevation, latitude, longitude, range, height, and movement on the map or in text.







IsCatalogInMostPopularTable: catalog: 52587, numindb: 8
Update: records affected: 1



GetName: 52587 STARLINK-3867

Hit Count: updated at: Sun, 14 Aug 2022 01:25:47 GMT